This is the latest recevied weather packets stored in our database for station/object F1AGU-13. If no packets are shown the sender has not sent any weather packets the latest 10 day(s).
| Time | Temp. | Humidity | Pressure | Rain* | Wind** | Luminosity | Snow |
|---|---|---|---|---|---|---|---|
| 1777977919 | 10° C | 89% | 1011.6 hPa | 0.76 mm | - | - | - |
| 1777977316 | 10° C | 88% | 1011.7 hPa | 0.51 mm | - | - | - |
| 1777976716 | 10° C | 89% | 1011.6 hPa | 0.51 mm | - | - | - |
| 1777976116 | 10° C | 90% | 1011.5 hPa | 0.76 mm | - | - | - |
| 1777975516 | 10° C | 88% | 1011.4 hPa | 0.51 mm | - | - | - |
| 1777974916 | 10.56° C | 90% | 1011.6 hPa | 0.51 mm | - | - | - |
| 1777974316 | 10.56° C | 90% | 1011.5 hPa | 0.51 mm | - | - | - |
| 1777973716 | 10.56° C | 90% | 1011.2 hPa | 0.51 mm | - | - | - |
| 1777973116 | 10.56° C | 89% | 1011.1 hPa | 0.51 mm | - | - | - |
| 1777973116 | 10.56° C | - | 1011.1 hPa | 0.51 mm | - | - | - |
| 1777972516 | 10.56° C | 88% | 1011.1 hPa | 0.25 mm | - | - | - |
| 1777971916 | 10.56° C | 88% | 1010.7 hPa | 0.25 mm | - | - | - |
| 1777971317 | 10.56° C | 87% | 1010.6 hPa | 0 mm | - | - | - |
| 1777970716 | 10.56° C | 88% | 1010.6 hPa | 0 mm | - | - | - |
| 1777970116 | 10.56° C | 89% | 1010.5 hPa | 0 mm | - | - | - |
| 1777969516 | 10° C | 93% | 1010.6 hPa | 0 mm | - | - | - |
| 1777968916 | 10° C | 94% | 1010.6 hPa | 0 mm | - | - | - |
| 1777968316 | 10° C | 96% | 1010.5 hPa | 0 mm | - | - | - |
| 1777967716 | 9.44° C | 96% | 1010.3 hPa | 0 mm | - | - | - |
| 1777967116 | 9.44° C | 96% | 1010.2 hPa | 0 mm | - | - | - |
| 1777966516 | 8.89° C | 96% | 1010.2 hPa | 0 mm | - | - | - |
| 1777965916 | 8.89° C | 96% | 1010 hPa | 0 mm | - | - | - |
| 1777965315 | 8.89° C | 96% | 1010 hPa | 0 mm | - | - | - |
| 1777964715 | 8.89° C | 96% | 1009.9 hPa | 0 mm | - | - | - |
| 1777964115 | 8.33° C | 96% | 1009.8 hPa | 0 mm | - | - | - |
* Rain latest hour (hover to see other rain measurements)
** Current wind speed in m/s (hover to see current wind gust speed)